C/2017 AB5 ( PanSTARRS )

Japanese version
Home page
Updated on April 13, 2018

---------------------------------------------------------------------

* Profile

Discovery Date January 3, 2017
Magnitude 21.3 mag
Discoverer Pan-STARRS 1 telescope (Haleakala)

* Pictures

* Orbital Elements

Epoch 2018 Feb. 11.0 TT = JDT 2458160.5
T 2018 Feb. 17.66689 TT                                 MPCW
q   9.2165642            (2000.0)            P               Q
z  +0.0000186      Peri.   78.38475     -0.41258361     -0.83519638
 +/-0.0000048      Node    42.69076     +0.47383583     -0.53770032
e   0.9998283      Incl.   32.43108     +0.77798095     -0.11543555
From 60 observations 2017 Jan. 3-2018 Mar. 14, mean residual 0".3.

* Magnitudes Graph

        m1 = 4.5 + 5 log d + 10.0 log r

---------------------------------------------------------------------

The orbital elements are published on M.P.E.C. 2018-F152.
The magnitudes graphs are made with Comet for Windows.

---------------------------------------------------------------------

Copyright(C) Seiichi Yoshida (comet@aerith.net). All rights reserved.